Flag for U.S.A. Weather past 2 weeks in Louisville, Kentucky, U.S.A.

73 °F

Passing clouds.

Feels Like: 77 °F
Forecast: 61 / 81 °F
Wind: 6 mph from North

Location: Standiford Field

Current Time: Oct 6, 2015 at 9:24:34 PM

Latest Report: Oct 6, 2015 at 8:56 PM

Visibility: 10 mi

Pressure: 30.03 "Hg

Humidity: 57%

Dew point: 57 °F

Location of LouisvilleLocation

Historic Weather in Louisville — Graph


Louisville temperature yesterday

Maximum temperature yesterday: 82 °F (at 2:56 PM)
Minimum temperature yesterday: 60 °F (at 7:56 AM)
Average temperature yesterday: 71 °F

Past Weeks' High & Low Weather Summary

High86 °F (Sep 24, 4:56 PM)94% (Sep 30, 4:56 AM)30.24 "Hg (Sep 30, 4:56 AM)
Low50 °F (Oct 2, 9:56 PM)26% (Sep 22, 4:56 PM)29.82 "Hg (Sep 29, 5:56 PM)
Average68 °F69%30.04 "Hg
* Reported Sep 21 7:56 PM — Oct 6 7:56 PM, Louisville, Weather by CustomWeather, © 2015

Note: Actual official high and low records may vary slightly from our data, if they occured in-between our weather recording intervals... More about our weather records


Louisville weather history for previous 24 hours

Time TempWeatherWind HumidityBarometerVisibility
7:56 PM
Tue, Oct 6
76 °FPassing clouds.8 mph50%30.02 "Hg10 mi
6:56 PM80 °FScattered clouds.8 mph41%30.01 "Hg10 mi
5:56 PM83 °FScattered clouds.6 mph37%30.01 "Hg10 mi
4:56 PM84 °FBroken clouds.5 mph37%30.01 "Hg10 mi
3:56 PM82 °FBroken clouds.8 mph37%30.02 "Hg10 mi
2:56 PM81 °FBroken clouds.7 mph42%30.03 "Hg10 mi
1:56 PM80 °FPartly sunny.3 mph44%30.06 "Hg10 mi
12:56 PM78 °FPartly sunny.7 mph45%30.07 "Hg10 mi
11:56 AM76 °FBroken clouds.N/A52%30.08 "Hg8 mi
10:56 AM72 °FScattered clouds.No wind61%30.09 "Hg9 mi
9:56 AM70 °FScattered clouds.No wind66%30.09 "Hg10 mi
8:56 AM66 °FScattered clouds.5 mph78%30.07 "Hg9 mi
7:56 AM61 °FPartly cloudy.5 mph90%30.05 "Hg9 mi
6:56 AM62 °FHigh level clouds.No wind86%30.04 "Hg10 mi
5:56 AM63 °FHigh level clouds.No wind87%30.03 "Hg10 mi
4:56 AM64 °FHigh level clouds.3 mph84%30.02 "Hg10 mi
3:56 AM64 °FHigh level clouds.3 mph84%30.02 "Hg10 mi
2:56 AM65 °FHigh level clouds.5 mph85%30.02 "Hg10 mi
1:56 AM67 °FHigh level clouds.No wind73%30.03 "Hg10 mi
12:56 AM70 °FHigh level clouds.3 mph66%30.03 "Hg10 mi
11:56 PM
Mon, Oct 5
70 °FPassing clouds.3 mph66%30.03 "Hg10 mi
10:56 PM71 °FPassing clouds.6 mph63%30.04 "Hg10 mi
9:56 PM73 °FPassing clouds.6 mph59%30.03 "Hg10 mi
Weather by CustomWeather, © 2015

See weather overviewHow to use our weather pages